Starlink 6353

operational
NORAD ID: 57056 Int'l Des: 2023-088 Owner: SPXS Country: US Constellation: starlink
LEOCIRCULAR

Über Starlink 6353

Beschreibung wird geladen...

Live-Position

3D-Globus wird geladen...

Nächste Überflüge

Höhenverlauf

Altitude vs Time

uPlot chart will show altitude changes over time

Zweizeiliger Elementsatz

1 57056U 23088J 25352.54062474 -.00000359 00000-0 -11499-4 0 9990
2 57056 43.0012 188.3462 0001087 268.6033 91.4685 15.02534754138169
Epoch: 18. Dez. 2025 • Age: 11 hours

Aktueller Status

Höhe 559.6 km
Geschwindigkeit 7.59 km/s
Subsatellitenpunkt 26.50°N, 125.19°E
Startdatum 22. Juni 2023
Alter 2.4 years
Typ internet

Technische Details

Klassifizierung Payload
Masse 305.00 kg
Trockenmasse 290.00 kg
Gesamtmasse 305.00 kg
Länge 0.20 m
Durchmesser 2.80 m
Spannweite 9.00 m
Form Box + pan
Hersteller SPXS
Bus-Typ Starlink
Phasenstatus In Orbit
Besitzer/Staat SPXS/US

Große Konstellationen

Loading constellations...